Flag for Switzerland Weather past 2 weeks in Stäfa, Zurich, Switzerland

Now
63 °F

Mild.


Feels Like: 63 °F
Forecast: 43 / 74 °F
Wind: 3 mph from Southwest

Location: Zurich Town / Ville.

Current Time: Aug 21, 2014 at 12:56:25 PM

Latest Report: Aug 21, 2014 at 12:00 PM


Visibility: N/A

Pressure: 30.04 "Hg

Humidity: 64%

Dew point: 50 °F

Location of StäfaLocation

Historic Weather in Stäfa — Graph

°F

Stäfa temperature yesterday

Maximum temperature yesterday: 65 °F (at 3:00 PM)
Minimum temperature yesterday: 54 °F (at 7:00 AM)
Average temperature yesterday: 59 °F

Past Weeks' High & Low Weather Summary

 TemperatureHumidityPressure
High80 °F (Aug 8, 4:00 PM)98% (Aug 10, 9:00 AM)30.22 "Hg (Aug 10, 9:00 AM)
Low49 °F (Aug 17, 7:00 AM)46% (Aug 17, 5:00 PM)29.68 "Hg (Aug 13, 10:00 AM)
Average62 °F76%29.97 "Hg
* Reported Aug 6 12:00 Noon — Aug 21 11:00 AM, Stäfa, Weather by CustomWeather, © 2014

Note: Actual official high and low records may vary slightly from our data, if they occured in-between our weather recording intervals... More about our weather records

Advertising

Stäfa weather history for previous 24 hours

 ConditionsComfort  
Time TempWeatherWind HumidityBarometerVisibility
11:00 AM
Aug 21
56 °FCool.1 mph76%30.08 "HgN/A
10:00 AM56 °FCool.1 mph80%30.08 "HgN/A
9:00 AM54 °FCool.2 mph92%30.09 "HgN/A
8:00 AM53 °FScattered clouds.1 mph93%30.09 "HgN/A
7:00 AM52 °FCool.1 mph94%30.09 "HgN/A
6:00 AM52 °FCool.2 mph94%30.09 "HgN/A
5:00 AM53 °FCool.2 mph88%30.09 "HgN/A
4:00 AM53 °FCool.1 mph91%30.09 "HgN/A
3:00 AM53 °FCool.3 mph91%30.09 "HgN/A
2:00 AM53 °FCool.2 mph89%30.08 "HgN/A
1:00 AM54 °FCool.1 mph92%30.08 "HgN/A
12:00 AM56 °FCool.1 mph84%30.04 "HgN/A
11:00 PM
Aug 20
56 °FCool.5 mph77%30.03 "HgN/A
10:00 PM58 °FCool.2 mph76%30.02 "HgN/A
9:00 PM59 °FCool.1 mph69%30.00 "HgN/A
8:00 PM62 °FOvercast.2 mph56%29.97 "HgN/A
7:00 PM62 °FRefreshingly cool.2 mph57%29.97 "HgN/A
6:00 PM62 °FRefreshingly cool.5 mph52%29.98 "HgN/A
5:00 PM63 °FMild.3 mph55%29.97 "HgN/A
4:00 PM62 °FCool.3 mph61%29.97 "HgN/A
3:00 PM65 °FMild.3 mph54%29.97 "HgN/A
2:00 PM64 °FOvercast.2 mph55%29.98 "HgN/A
1:00 PM64 °FMild.2 mph59%29.98 "HgN/A
12:00 PM62 °FRefreshingly cool.2 mph59%30.00 "HgN/A
Weather by CustomWeather, © 2014

See weather overviewHow to use our weather pages